Regional Weather Roundup
Issued by NWS

Home | Current Version | Previous Version | Text Only | Print | Product List | Glossary On
Versions: 1 2 3 4 5 6 7 8 9 10 11 12 13 14 15 16 17 18 19 20 21 22 23 24 25 26 27
000
ASUS45 KBOI 192010
RWRID

IDAHO REGIONAL WEATHER ROUNDUP
NATIONAL WEATHER SERVICE BOISE ID
100 PM MST SUN FEB 19 2017

NOTE: "FAIR" INDICATES FEW OR NO CLOUDS BELOW 12000 FEET
WITH NO SIGNIFICANT WEATHER AND/OR OBSTRUCTIONS TO VISIBILITY

IDZ012-014-192100-
SOUTHWEST IDAHO


CITY           SKY/WX    TMP DP  RH WIND       PRES   REMARKS
BOISE          CLOUDY    46  36  68 S7        29.64F
CALDWELL       PTSUNNY   49  42  77 E8        29.63S
MOUNTAIN HOME  PTSUNNY   49  38  66 W20       29.64S
$$

IDZ016-017-192100-
SOUTHCENTRAL IDAHO


CITY           SKY/WX    TMP DP  RH WIND       PRES   REMARKS
BURLEY         LGT RAIN  48  36  63 NW3       29.64F
JEROME           N/A    N/A N/A N/A MISG      29.65F
TWIN FALLS     PTSUNNY   45  36  70 CALM      29.64F
$$

IDZ019>023-192100-
SOUTHEAST IDAHO


CITY           SKY/WX    TMP DP  RH WIND       PRES   REMARKS
IDAHO FALLS    PTSUNNY   39  37  92 SW20      29.67R WCI  29
POCATELLO      CLOUDY    45  36  70 SW8       29.67F
REXBURG        CLOUDY    40  35  83 SW18G26   29.65S WCI  31
$$

IDZ006-010-011-018-031-032-192100-
CENTRAL IDAHO MOUNTAINS


CITY           SKY/WX    TMP DP  RH WIND       PRES   REMARKS
MCCALL         LGT SNOW  33  28  81 SW14G25   29.56R VSB 3/4 WCI  23
HAILEY         LGT SNOW  36  34  93 S6        29.65F WCI  31
STANLEY          N/A     34  24  67 E3        29.58F
SALMON         PTSUNNY   43  34  70 E13       29.55F
CHALLIS        MOSUNNY   42  21  43 W8        29.55F
$$

IDZ002-004-006-007-026-192100-
NORTHERN IDAHO


CITY           SKY/WX    TMP DP  RH WIND       PRES   REMARKS
LEWISTON       CLOUDY    45  39  79 N6        29.54F
LOWELL           N/A     45  38  76 N3        29.58F
COEUR D`ALENE  CLOUDY    39  35  86 S3        29.55S
MULLAN PASS    PTSUNNY   28  27  96 VRB5      29.49S WCI  23
$$




USA.gov is the U.S. government's official web portal to all federal, state and local government web resources and services.